Location: Cussy
(47.0410°N, 4.6412°E)
Time: 14:17:09
(UTC+00:00)

H-2A R/B - Pass Details

Date: 30 November 2020
Orbit: 734 x 836 km, 98.2° (Epoch: 27 January)

Event Time Altitude Azimuth Distance (km) Brightness Sun altitude
Exits shadow 18:06:40 48° 98° (E) 1,032 2.2 -21.8°
Maximum altitude 18:07:23 51° 70° (ENE) 984 2.1 -21.9°
Drops below altitude 10° 18:12:21 10° 356° (N) 2,329 4.5 -22.8°
Sets 18:14:41 0° 351° (N) 3,245 5.3 -23.2°
